Wind from 351 at 7 knots gusting 12

Air temperature 6.7° C
Dewpoint 2.9° C

Last reported at 2014-Apr-18 07:43 UTC.
Time now 2014-Apr-18 08:18 UTC

Location: N 60°01' E 005°12'.
View on Google Maps.

See reports from other nearby stations

Tides Stations Pressure Air Temp Water Temp Dewpoint Dewpoint depression Visibility Wind Speed Wind Dir Waves Ship positions

  
sailing weather and tide predictions

DW8453 Bekkjarvik NO weather

date/time (UTC)wind fromknots sea level pressurealtimeterstation pressurevisibilityair tempwater tempwave heightnotes
2014-Apr-18 07:43 351 7 gusting 12 6.7
2014-Apr-18 07:33 347 6 gusting 13 6.1
2014-Apr-18 07:23 352 5 gusting 13 6.1
2014-Apr-18 07:13 340 8 gusting 14 6.1
2014-Apr-18 07:03 033 6 gusting 12 6.1
2014-Apr-18 06:53 006 6 gusting 11 6.1
2014-Apr-18 06:43 347 7 gusting 11 5.6
2014-Apr-18 06:33 357 6 gusting 11 5.6
2014-Apr-18 06:22 003 3 gusting 11 5.6
2014-Apr-18 06:13 343 2 gusting 13 5.6
2014-Apr-18 06:03 345 5 gusting 8 5.0
2014-Apr-18 05:53 353 5 gusting 7 5.0
2014-Apr-18 05:42 005 5 gusting 8 5.0
2014-Apr-18 05:33 009 5 gusting 8 4.4
2014-Apr-18 05:23 005 4 gusting 6 4.4
2014-Apr-18 05:12 339 2 gusting 5 4.4
2014-Apr-18 05:03 351 1 gusting 10 4.4
2014-Apr-18 04:53 357 5 gusting 8 4.4
2014-Apr-18 04:43 007 5 gusting 11 4.4
2014-Apr-18 04:32 347 6 gusting 15 4.4
2014-Apr-18 04:23 014 1 gusting 13 4.4
2014-Apr-18 04:12 007 4 gusting 12 4.4
2014-Apr-18 04:03 001 4 gusting 10 4.4
2014-Apr-18 03:53 013 5 gusting 8 4.4
2014-Apr-18 03:42 011 5 gusting 13 4.4
2014-Apr-18 03:33 356 5 gusting 11 4.4
2014-Apr-18 03:23 003 5 gusting 13 4.4
2014-Apr-18 03:13 340 4 gusting 11 4.4
2014-Apr-18 03:03 350 6 gusting 13 4.4
2014-Apr-18 02:53 016 6 gusting 12 4.4
2014-Apr-18 02:43 340 6 gusting 8 4.4
2014-Apr-18 02:33 343 4 gusting 8 4.4
2014-Apr-18 02:23 303 2 gusting 6 4.4
2014-Apr-18 02:13 348 4 gusting 12 5.0
2014-Apr-18 02:03 355 4 gusting 12 5.0
2014-Apr-18 01:53 328 6 gusting 12 5.0
2014-Apr-18 01:43 348 7 gusting 11 5.0
2014-Apr-18 01:33 351 7 gusting 12 5.0
2014-Apr-18 01:23 334 5 gusting 8 5.0
2014-Apr-18 01:12 344 4 gusting 8 5.0
2014-Apr-18 01:03 345 5 gusting 12 5.0
2014-Apr-18 00:53 356 5 gusting 12 5.0
2014-Apr-18 00:43 337 6 gusting 12 5.6
2014-Apr-18 00:33 001 8 gusting 13 5.6
2014-Apr-18 00:22 006 6 gusting 13 5.6
2014-Apr-18 00:12 344 8 gusting 13 5.6
2014-Apr-18 00:03 014 6 gusting 15 5.6
2014-Apr-17 23:53 008 7 gusting 13 5.6
2014-Apr-17 23:42 005 6 gusting 12 5.6
2014-Apr-17 23:32 003 5 gusting 12 5.6
2014-Apr-17 23:23 007 6 gusting 11 5.6
2014-Apr-17 23:13 351 4 gusting 8 5.6
2014-Apr-17 23:03 312 2 gusting 7 5.6
2014-Apr-17 22:52 338 6 gusting 12 5.6
2014-Apr-17 22:43 357 6 gusting 10 6.1
2014-Apr-17 22:33 340 4 gusting 7 6.1
2014-Apr-17 22:23 352 5 gusting 10 6.1
2014-Apr-17 22:13 356 6 gusting 10 6.1
2014-Apr-17 22:03 347 7 gusting 13 6.1
2014-Apr-17 21:53 346 4 gusting 7 6.1
2014-Apr-17 21:43 018 5 gusting 7 6.1
2014-Apr-17 21:32 337 3 gusting 12 6.1
2014-Apr-17 21:23 6.1
2014-Apr-17 21:12 352 5 gusting 10 6.1
2014-Apr-17 21:02 002 5 gusting 8 6.1
2014-Apr-17 20:53 002 6 gusting 10 6.1
2014-Apr-17 20:43 008 5 gusting 8 6.1
2014-Apr-17 20:33 347 3 gusting 11 6.1
2014-Apr-17 20:23 6.1
2014-Apr-17 20:13 338 2 gusting 6 6.1
2014-Apr-17 20:02 6.1
2014-Apr-17 19:52 338 6 gusting 8 6.1
2014-Apr-17 19:43 344 2 gusting 6 6.1
2014-Apr-17 19:33 001 1 gusting 7 6.1
2014-Apr-17 19:23 331 2 gusting 6 6.1
2014-Apr-17 19:12 321 2 gusting 6 6.7
2014-Apr-17 19:02 342 1 gusting 5 6.7
2014-Apr-17 18:52 319 2 gusting 6 6.7
2014-Apr-17 18:43 323 2 gusting 6 6.7
2014-Apr-17 18:33 324 3 gusting 6 6.7
2014-Apr-17 18:23 010 1 gusting 4 7.2
2014-Apr-17 18:13 357 1 gusting 4 7.2
2014-Apr-17 18:03 322 0 gusting 2 7.2
2014-Apr-17 17:53 311 0 gusting 2 7.8
2014-Apr-17 17:43 329 0 gusting 2 8.3
2014-Apr-17 17:33 280 0 gusting 1 8.3
2014-Apr-17 17:23 331 0 gusting 1 9.4
2014-Apr-17 17:13 10.6
2014-Apr-17 17:03 296 0 gusting 2 8.9
2014-Apr-17 16:53 297 0 gusting 1 7.8
2014-Apr-17 16:43 328 0 gusting 1 7.8
2014-Apr-17 16:33 294 0 gusting 2 7.8
2014-Apr-17 16:23 015 0 gusting 2 7.8
2014-Apr-17 16:13 307 8.3
2014-Apr-17 16:03 299 1 gusting 2 8.3
2014-Apr-17 15:53 318 8.3
2014-Apr-17 15:42 316 0 gusting 5 7.8
2014-Apr-17 15:33 251 2 gusting 6 7.8
2014-Apr-17 15:23 221 6 gusting 7 7.8
2014-Apr-17 15:12 223 1 gusting 4 8.3
2014-Apr-17 15:03 253 1 gusting 7 8.3
2014-Apr-17 14:53 317 0 gusting 5 8.3
2014-Apr-17 14:42 323 0 gusting 8 7.8
2014-Apr-17 14:32 269 2 gusting 6 7.8
2014-Apr-17 14:23 243 1 gusting 6 7.8
2014-Apr-17 14:13 349 0 gusting 4 7.2
2014-Apr-17 14:03 227 0 gusting 5 7.2
2014-Apr-17 13:53 253 4 gusting 5 6.7
2014-Apr-17 13:43 214 3 gusting 7 6.7
2014-Apr-17 13:33 246 4 gusting 6 6.7
2014-Apr-17 13:23 251 4 gusting 6 6.7
2014-Apr-17 13:13 234 4 gusting 6 6.7
2014-Apr-17 13:03 239 4 gusting 7 6.7
2014-Apr-17 12:53 230 4 gusting 8 6.7
2014-Apr-17 12:43 234 6 gusting 7 6.1
2014-Apr-17 12:33 250 5 gusting 6 6.1
2014-Apr-17 12:23 216 6 gusting 10 6.7
2014-Apr-17 12:13 254 3 gusting 18 6.7
2014-Apr-17 12:03 249 9 gusting 13 7.2
2014-Apr-17 11:53 206 6 gusting 11 7.2
2014-Apr-17 11:43 214 5 gusting 12 7.2
2014-Apr-17 11:33 216 5 gusting 13 7.2
2014-Apr-17 11:23 258 6 gusting 12 7.2
2014-Apr-17 11:13 235 7 gusting 8 6.7
2014-Apr-17 11:02 219 6 gusting 12 6.7
2014-Apr-17 10:53 266 8 gusting 14 6.7
2014-Apr-17 10:43 245 8 gusting 13 6.7
2014-Apr-17 10:32 247 9 gusting 12 6.7
2014-Apr-17 10:23 236 9 gusting 13 6.7
2014-Apr-17 10:12 234 6 gusting 12 6.7
2014-Apr-17 10:02 246 8 gusting 12 6.7
2014-Apr-17 09:53 245 7 gusting 13 6.7
2014-Apr-17 09:42 230 7 gusting 12 6.7
2014-Apr-17 09:33 199 7 gusting 12 6.7
2014-Apr-17 09:23 206 6 gusting 11 6.7
2014-Apr-17 09:12 231 7 gusting 13 6.1
2014-Apr-17 09:03 257 8 gusting 13 6.1
2014-Apr-17 08:43 244 6 gusting 20 6.1
2014-Apr-16 22:53 195 19 gusting 25 6.7
2014-Apr-16 22:42 166 13 gusting 19 6.7
2014-Apr-16 22:32 191 14 gusting 25 7.2
2014-Apr-16 22:22 190 16 gusting 26 7.2
2014-Apr-16 22:13 201 14 gusting 20 7.2
2014-Apr-16 22:02 185 13 gusting 20 7.2
2014-Apr-16 21:52 177 18 gusting 20 7.2
2014-Apr-16 21:42 191 12 gusting 20 7.2
2014-Apr-16 21:32 176 15 gusting 20 7.2
2014-Apr-16 21:22 206 13 gusting 20 7.2
2014-Apr-16 21:12 194 13 gusting 18 7.2
2014-Apr-16 21:02 193 13 gusting 18 7.2
2014-Apr-16 20:52 169 12 gusting 18 7.2
2014-Apr-16 20:42 199 11 gusting 17 7.2
2014-Apr-16 20:32 186 11 gusting 18 7.2
2014-Apr-16 20:22 186 12 gusting 19 7.2
2014-Apr-16 20:13 180 15 gusting 18 7.2
2014-Apr-16 20:02 199 13 gusting 18 7.2
2014-Apr-16 19:52 196 12 gusting 20 7.2
2014-Apr-16 19:42 185 12 gusting 18 7.2
2014-Apr-16 19:32 192 13 gusting 18 7.2
2014-Apr-16 19:22 195 12 gusting 17 7.2
2014-Apr-16 19:12 185 13 gusting 18 7.8
2014-Apr-16 19:02 212 14 gusting 19 7.8
2014-Apr-16 18:52 198 11 gusting 15 7.8
2014-Apr-16 18:42 178 14 gusting 17 7.8
2014-Apr-16 18:23 193 13 gusting 21 7.8
2014-Apr-16 18:13 202 14 gusting 22 7.8
2014-Apr-16 18:03 203 12 gusting 15 8.3
2014-Apr-16 17:53 190 12 gusting 18 8.3
2014-Apr-16 17:43 180 13 gusting 19 8.3
2014-Apr-16 17:33 180 12 gusting 19 8.3
2014-Apr-16 17:23 189 12 gusting 19 8.3
2014-Apr-16 17:13 187 18 gusting 26 8.9
2014-Apr-16 17:03 176 13 gusting 26 8.9
2014-Apr-16 16:53 190 18 gusting 26 8.9
2014-Apr-16 16:43 198 12 gusting 15 8.9
2014-Apr-16 16:33 167 13 gusting 25 8.9
2014-Apr-16 16:23 185 15 gusting 22 8.9
2014-Apr-16 16:13 174 15 gusting 21 8.9
2014-Apr-16 16:03 197 17 gusting 26 8.9
2014-Apr-16 15:53 173 16 gusting 28 9.4
2014-Apr-16 15:43 165 18 gusting 33 9.4
2014-Apr-16 15:33 190 11 gusting 21 9.4
2014-Apr-16 15:23 164 13 gusting 21 9.4
2014-Apr-16 15:13 179 13 gusting 19 9.4
2014-Apr-16 15:03 210 14 gusting 20 9.4
2014-Apr-16 14:53 195 12 gusting 22 9.4
2014-Apr-16 14:43 189 12 gusting 19 9.4
2014-Apr-16 14:33 192 13 gusting 27 9.4
2014-Apr-16 14:23 185 13 gusting 19 9.4
2014-Apr-16 14:13 189 19 gusting 26 10.0
2014-Apr-16 14:03 179 16 gusting 26 10.0
2014-Apr-16 13:53 192 15 gusting 19 10.0
2014-Apr-16 13:43 195 13 gusting 21 10.0
2014-Apr-16 13:33 199 17 gusting 20 10.0
2014-Apr-16 13:23 191 12 gusting 22 10.6
2014-Apr-16 13:13 184 15 gusting 21 10.6
2014-Apr-16 13:03 183 19 gusting 28 10.0
2014-Apr-16 12:53 187 12 gusting 19 10.0
2014-Apr-16 12:43 185 13 gusting 18 9.4
2014-Apr-16 12:33 183 16 gusting 26 9.4
2014-Apr-16 12:23 171 13 gusting 18 9.4
2014-Apr-16 12:13 166 12 gusting 24 9.4
2014-Apr-16 12:03 172 14 gusting 19 9.4
2014-Apr-16 11:53 189 14 gusting 19 8.9
2014-Apr-16 11:43 151 14 gusting 20 8.9
2014-Apr-16 11:33 189 12 gusting 20 8.9
2014-Apr-16 11:23 174 13 gusting 26 8.9
2014-Apr-16 11:13 173 13 gusting 19 8.9
2014-Apr-16 11:03 182 11 gusting 18 8.9
2014-Apr-16 10:53 184 13 gusting 20 8.9
2014-Apr-16 10:43 207 12 gusting 18 8.9
2014-Apr-16 10:33 210 8 gusting 19 8.9
2014-Apr-16 10:23 170 12 gusting 19 8.9
2014-Apr-16 10:13 187 13 gusting 25 8.9
2014-Apr-16 10:03 182 13 gusting 19 8.9
2014-Apr-16 09:53 195 12 gusting 18 8.9
2014-Apr-16 09:43 177 8 gusting 15 8.9
2014-Apr-16 09:33 183 13 gusting 20 8.9
2014-Apr-16 09:23 173 18 gusting 25 8.3
2014-Apr-16 09:13 183 13 gusting 19 8.3
2014-Apr-16 09:03 180 12 gusting 19 8.9
2014-Apr-16 08:53 195 11 gusting 19 8.9
2014-Apr-16 08:43 206 12 gusting 14 8.9
2014-Apr-16 08:33 185 10 gusting 26 8.3
2014-Apr-16 08:23 182 15 gusting 20 8.3
2014-Apr-16 08:13 174 11 gusting 19 8.3
2014-Apr-16 08:03 194 13 gusting 19 8.3